STARLINK-1094 (44941 NORAD) Tracking and Keplerian Element Data

This shows tracking and keplerian element data for the satellite.

Feedback or suggestion? Click here.




ElementValue
Catalog44941
NameSTARLINK-1094
Epoch Orbit654
Epoch Day48.58334491
Epoch Year2020
RAAN190.4476
Inclination52.9956
Eccentricity0.0001658
Argument of Perigee48.1547
Mean Anonmoly256.8761
Mean Motion15.73234781
Decay Rate-0.00012225
L11 44941U 20001AD 20048.58334491 -.00012225 00000-0 -82653-4 0 9998
L22 44941 52.9956 190.4476 0001658 48.1547 256.8761 15.73234781 6541

Live tracking and technical data element details for STARLINK-1094 (NORAD 44941). STARLINK-1094 can be tracked NOW for your location showing map with azimuth and elevation plus other details from your city location.

Track the satellite on the map from your city or location and see movement details for azimuth, elevation, latitude, longitude, range, height, and movement on the map or in text.







IsCatalogInMostPopularTable: catalog: 44941, numindb: 9
Update: records affected: 1



GetName: 44941 STARLINK-1094

Hit Count: updated at: Mon, 17 Feb 2020 23:55:15 GMT